Tracking 27086 objects as of 22-Mar-2023
HD Live streaming from Space Station
objects crossing your sky now

STARLINK-3285

Track STARLINK-3285 now!
10-day predictions
STARLINK-3285 is classified as:


NORAD ID: 50181
Int'l Code: 2021-125AB
Perigee: 546.0 km
Apogee: 547.8 km
Inclination: 53.2 °
Period: 95.4 minutes
Semi major axis: 6917 km
RCS: Unknown
Launch date: December 18, 2021
Source: United States (US)
Launch site: AIR FORCE WESTERN TEST RANGE (AFWTR)
Your satellite tracking list
Your tracking list is empty




NASA's NSSDC Master Catalog

Two Line Element Set (TLE):
1 50181U 21125AB  23081.24795345  .00002779  00000-0  19263-3 0  9998
2 50181  53.2159  72.8841 0001263 113.7931 246.3194 15.08839222 72557
Source of the keplerian elements: AFSPC